QPF
0.00 0.00 0.00 0.00 0.00 0.00 0.00 0.00 0.00 0.00 0.00 0.00 0.00 0.00 0.00 0.00 0.00 0.01 0.00 0.00 0.00 0.00 0.00 0.00 0.01 0.02 0.02 0.03 0.04 0.05 0.06 0.05 0.05 0.06 0.05 0.07 0.06 0.06 0.09 0.12 0.11 0.08 0.10 0.12 0.09 0.09 0.11 0.11 0.08
0.00 0.00 0.00 0.00 0.00 0.00 0.00 0.00 0.00 0.00 0.00 0.00 0.00 0.00 0.00 0.00 0.00 0.00 0.00 0.00 0.00 0.00 0.00 0.00 0.01 0.02 0.02 0.03 0.04 0.04 0.05 0.05 0.05 0.06 0.06 0.07 0.07 0.05 0.07 0.12 0.13 0.11 0.12 0.17 0.15 0.13 0.11 0.11 0.11
0.00 0.00 0.00 0.00 0.00 0.00 0.00 0.00 0.00 0.00 0.00 0.00 0.00 0.00 0.00 0.00 0.00 0.00 0.01 0.00 0.00 0.01 0.00 0.01 0.01 0.02 0.02 0.04 0.03 0.02 0.03 0.03 0.03 0.04 0.05 0.07 0.09 0.10 0.10 0.13 0.14 0.11 0.14 0.18 0.18 0.14 0.11 0.09 0.10
0.00 0.00 0.00 0.00 0.00 0.00 0.00 0.00 0.00 0.00 0.00 0.00 0.00 0.00 0.00 0.00 0.00 0.00 0.00 0.00 0.01 0.02 0.02 0.01 0.02 0.02 0.01 0.02 0.03 0.03 0.03 0.03 0.03 0.03 0.04 0.06 0.08 0.10 0.12 0.16 0.14 0.13 0.15 0.21 0.21 0.16 0.13 0.12 0.11
0.00 0.00 0.00 0.00 0.00 0.00 0.00 0.00 0.00 0.00 0.00 0.00 0.00 0.00 0.00 0.00 0.00 0.00 0.00 0.01 0.01 0.01 0.02 0.02 0.03 0.02 0.01 0.02 0.03 0.03 0.03 0.03 0.03 0.03 0.05 0.06 0.07 0.09 0.14 0.17 0.16 0.17 0.12 0.17 0.19 0.18 0.16 0.14 0.11
0.00 0.00 0.00 0.00 0.00 0.00 0.00 0.00 0.00 0.00 0.00 0.00 0.00 0.00 0.00 0.01 0.01 0.01 0.00 0.01 0.00 0.01 0.01 0.02 0.02 0.02 0.01 0.02 0.03 0.04 0.03 0.02 0.03 0.04 0.05 0.06 0.08 0.12 0.16 0.17 0.15 0.18 0.13 0.13 0.16 0.17 0.17 0.14 0.11
0.00 0.00 0.00 0.00 0.00 0.00 0.00 0.00 0.00 0.00 0.00 0.00 0.00 0.00 0.00 0.00 0.00 0.00 0.00 0.01 0.00 0.01 0.01 0.01 0.01 0.01 0.01 0.02 0.03 0.04 0.04 0.04 0.04 0.03 0.03 0.05 0.07 0.11 0.12 0.10 0.12 0.18 0.14 0.11 0.13 0.15 0.15 0.13 0.12
0.00 0.00 0.00 0.00 0.00 0.00 0.00 0.00 0.00 0.00 0.00 0.00 0.00 0.00 0.00 0.00 0.00 0.00 0.00 0.01 0.01 0.02 0.01 0.01 0.01 0.01 0.01 0.02 0.03 0.04 0.03 0.03 0.03 0.03 0.03 0.03 0.05 0.07 0.05 0.06 0.10 0.19 0.13 0.10 0.13 0.15 0.14 0.14 0.12
0.00 0.00 0.00 0.00 0.00 0.00 0.00 0.00 0.00 0.00 0.00 0.00 0.00 0.00 0.01 0.00 0.00 0.00 0.00 0.00 0.01 0.01 0.02 0.02 0.01 0.01 0.01 0.01 0.02 0.03 0.03 0.03 0.03 0.03 0.04 0.05 0.07 0.07 0.05 0.05 0.07 0.10 0.08 0.09 0.15 0.17 0.13 0.14 0.14
0.00 0.00 0.00 0.00 0.00 0.00 0.00 0.00 0.00 0.00 0.00 0.01 0.01 0.00 0.00 0.00 0.00 0.00 0.00 0.01 0.01 0.01 0.01 0.01 0.01 0.01 0.01 0.01 0.02 0.03 0.03 0.02 0.02 0.02 0.03 0.05 0.05 0.07 0.06 0.06 0.07 0.06 0.07 0.08 0.13 0.12 0.10 0.13 0.13
0.00 0.00 0.00 0.00 0.00 0.00 0.00 0.00 0.00 0.00 0.00 0.01 0.01 0.00 0.00 0.00 0.00 0.00 0.00 0.01 0.01 0.01 0.01 0.01 0.01 0.01 0.01 0.01 0.02 0.02 0.02 0.02 0.02 0.02 0.03 0.05 0.05 0.06 0.07 0.09 0.10 0.10 0.09 0.08 0.08 0.07 0.07 0.08 0.09
0.00 0.00 0.00 0.00 0.00 0.00 0.00 0.00 0.00 0.00 0.00 0.00 0.00 0.00 0.01 0.01 0.01 0.00 0.01 0.01 0.01 0.01 0.01 0.01 0.01 0.01 0.01 0.01 0.02 0.02 0.01 0.02 0.02 0.02 0.03 0.04 0.04 0.05 0.10 0.10 0.11 0.11 0.10 0.08 0.07 0.07 0.08 0.07 0.07
0.00 0.00 0.00 0.00 0.00 0.00 0.00 0.00 0.00 0.00 0.00 0.00 0.00 0.00 0.00 0.01 0.00 0.00 0.00 0.00 0.01 0.01 0.01 0.00 0.00 0.00 0.00 0.01 0.02 0.01 0.02 0.02 0.02 0.03 0.03 0.04 0.04 0.06 0.10 0.09 0.11 0.10 0.09 0.07 0.06 0.07 0.09 0.11 0.10
0.00 0.00 0.00 0.00 0.00 0.00 0.00 0.00 0.00 0.00 0.00 0.00 0.00 0.00 0.00 0.00 0.00 0.00 0.00 0.00 0.00 0.01 0.01 0.01 0.00 0.00 0.00 0.01 0.01 0.02 0.02 0.02 0.01 0.02 0.02 0.03 0.04 0.05 0.06 0.07 0.08 0.08 0.08 0.07 0.06 0.06 0.08 0.12 0.13
0.00 0.00 0.00 0.00 0.00 0.00 0.00 0.00 0.00 0.00 0.00 0.00 0.00 0.00 0.00 0.01 0.00 0.00 0.01 0.01 0.00 0.00 0.01 0.01 0.01 0.01 0.01 0.01 0.01 0.02 0.02 0.02 0.02 0.02 0.02 0.02 0.03 0.03 0.05 0.05 0.05 0.05 0.05 0.05 0.05 0.06 0.08 0.11 0.13
0.00 0.00 0.00 0.00 0.00 0.00 0.00 0.00 0.00 0.00 0.00 0.00 0.00 0.00 0.00 0.00 0.00 0.01 0.01 0.01 0.01 0.01 0.01 0.01 0.01 0.01 0.02 0.02 0.02 0.03 0.03 0.02 0.03 0.03 0.03 0.03 0.02 0.03 0.04 0.05 0.05 0.05 0.04 0.04 0.05 0.05 0.07 0.10 0.11
0.00 0.00 0.00 0.00 0.00 0.00 0.00 0.00 0.00 0.00 0.00 0.00 0.00 0.00 0.00 0.00 0.00 0.01 0.02 0.01 0.01 0.01 0.01 0.00 0.01 0.02 0.03 0.02 0.02 0.03 0.03 0.03 0.04 0.06 0.05 0.03 0.04 0.05 0.06 0.06 0.06 0.05 0.05 0.05 0.05 0.06 0.06 0.06 0.08
0.00 0.00 0.00 0.00 0.00 0.00 0.00 0.00 0.00 0.00 0.00 0.00 0.00 0.00 0.00 0.00 0.00 0.01 0.01 0.01 0.01 0.01 0.01 0.01 0.01 0.02 0.03 0.02 0.02 0.02 0.02 0.03 0.03 0.05 0.05 0.05 0.06 0.05 0.05 0.05 0.06 0.07 0.07 0.06 0.05 0.04 0.05 0.06 0.07
0.00 0.00 0.00 0.00 0.00 0.00 0.00 0.00 0.00 0.00 0.00 0.00 0.00 0.00 0.00 0.00 0.01 0.01 0.01 0.01 0.01 0.01 0.01 0.01 0.01 0.01 0.02 0.02 0.02 0.03 0.03 0.03 0.03 0.03 0.04 0.07 0.09 0.05 0.06 0.05 0.07 0.08 0.07 0.06 0.06 0.06 0.05 0.06 0.07
0.00 0.00 0.00 0.00 0.00 0.00 0.00 0.00 0.00 0.00 0.00 0.00 0.00 0.00 0.00 0.01 0.02 0.02 0.01 0.01 0.01 0.01 0.01 0.01 0.01 0.01 0.01 0.02 0.02 0.03 0.04 0.06 0.05 0.05 0.05 0.06 0.05 0.06 0.06 0.08 0.08 0.09 0.07 0.06 0.06 0.07 0.06 0.05 0.05
0.00 0.00 0.00 0.00 0.00 0.00 0.00 0.00 0.00 0.00 0.00 0.00 0.01 0.00 0.00 0.01 0.01 0.01 0.00 0.01 0.02 0.02 0.01 0.01 0.01 0.01 0.02 0.02 0.02 0.04 0.05 0.06 0.08 0.07 0.07 0.10 0.09 0.06 0.06 0.07 0.07 0.06 0.06 0.05 0.06 0.06 0.05 0.06 0.06
0.00 0.00 0.00 0.00 0.00 0.00 0.00 0.01 0.00 0.00 0.00 0.00 0.00 0.00 0.00 0.01 0.01 0.01 0.01 0.01 0.03 0.02 0.02 0.02 0.02 0.02 0.02 0.02 0.02 0.05 0.06 0.11 0.15 0.14 0.10 0.08 0.07 0.05 0.05 0.05 0.06 0.05 0.04 0.05 0.04 0.04 0.05 0.08 0.09
0.00 0.00 0.00 0.00 0.00 0.00 0.00 0.00 0.00 0.00 0.00 0.00 0.00 0.01 0.01 0.01 0.01 0.01 0.01 0.01 0.02 0.03 0.03 0.02 0.02 0.02 0.03 0.03 0.04 0.07 0.08 0.15 0.20 0.15 0.10 0.07 0.06 0.05 0.04 0.04 0.05 0.06 0.05 0.05 0.04 0.04 0.05 0.06 0.07
0.00 0.00 0.00 0.00 0.00 0.00 0.00 0.00 0.00 0.00 0.00 0.01 0.02 0.03 0.02 0.01 0.01 0.01 0.01 0.01 0.03 0.03 0.03 0.02 0.01 0.01 0.02 0.02 0.03 0.05 0.06 0.08 0.10 0.12 0.10 0.07 0.05 0.05 0.04 0.04 0.05 0.06 0.07 0.06 0.05 0.05 0.05 0.06 0.06
0.00 0.00 0.00 0.00 0.00 0.00 0.00 0.00 0.00 0.00 0.00 0.00 0.01 0.03 0.02 0.01 0.01 0.02 0.02 0.02 0.02 0.02 0.02 0.02 0.01 0.02 0.02 0.02 0.04 0.06 0.07 0.07 0.08 0.08 0.06 0.05 0.05 0.05 0.05 0.04 0.05 0.05 0.07 0.06 0.05 0.06 0.06 0.07 0.07
0.00 0.00 0.00 0.00 0.00 0.00 0.00 0.00 0.00 0.00 0.00 0.00 0.01 0.03 0.01 0.00 0.01 0.01 0.02 0.02 0.02 0.02 0.02 0.02 0.02 0.02 0.02 0.02 0.03 0.05 0.06 0.06 0.06 0.06 0.05 0.04 0.04 0.05 0.04 0.03 0.04 0.05 0.06 0.05 0.05 0.05 0.05 0.06 0.08
0.00 0.00 0.00 0.00 0.00 0.00 0.00 0.00 0.00 0.00 0.00 0.00 0.00 0.00 0.00 0.00 0.01 0.01 0.01 0.01 0.02 0.03 0.04 0.02 0.02 0.02 0.01 0.02 0.02 0.03 0.04 0.04 0.05 0.05 0.04 0.04 0.05 0.04 0.04 0.03 0.03 0.05 0.07 0.06 0.05 0.06 0.04 0.05 0.07
0.00 0.00 0.00 0.00 0.00 0.00 0.00 0.00 0.00 0.00 0.00 0.00 0.01 0.01 0.00 0.00 0.00 0.00 0.00 0.01 0.01 0.02 0.03 0.03 0.03 0.02 0.01 0.01 0.01 0.02 0.04 0.04 0.04 0.04 0.04 0.05 0.05 0.04 0.04 0.04 0.04 0.04 0.05 0.05 0.06 0.06 0.05 0.06 0.05
0.00 0.00 0.00 0.00 0.00 0.00 0.00 0.00 0.00 0.00 0.00 0.01 0.01 0.01 0.00 0.00 0.00 0.00 0.00 0.01 0.01 0.01 0.02 0.03 0.03 0.03 0.02 0.01 0.02 0.02 0.02 0.03 0.03 0.03 0.03 0.04 0.04 0.05 0.05 0.04 0.04 0.04 0.03 0.04 0.04 0.05 0.06 0.06 0.05
0.00 0.00 0.00 0.00 0.00 0.00 0.00 0.00 0.00 0.00 0.00 0.00 0.01 0.00 0.00 0.00 0.00 0.01 0.01 0.01 0.02 0.02 0.02 0.01 0.02 0.04 0.03 0.03 0.03 0.03 0.02 0.02 0.03 0.03 0.04 0.04 0.04 0.05 0.04 0.04 0.04 0.04 0.04 0.04 0.04 0.04 0.06 0.06 0.06
MSLP
1006.90 1007.36 1008.03 1008.78 1009.46 1009.98 1010.26 1010.29 1010.13 1009.85 1009.58 1009.37 1009.27 1009.26 1009.30 1009.32 1009.28 1009.15 1008.98 1008.82 1008.75 1008.85 1009.17 1009.68 1010.33 1011.02 1011.63 1012.09 1012.34 1012.40 1012.31 1012.16 1012.03 1012.00 1012.08 1012.27 1012.52 1012.79 1013.00 1013.15 1013.24 1013.29 1013.35 1013.48 1013.68 1013.97 1014.31 1014.67 1014.99
1007.04 1007.62 1008.38 1009.16 1009.84 1010.29 1010.46 1010.35 1010.03 1009.59 1009.16 1008.83 1008.63 1008.57 1008.61 1008.67 1008.71 1008.70 1008.65 1008.61 1008.65 1008.84 1009.21 1009.76 1010.43 1011.13 1011.77 1012.25 1012.55 1012.66 1012.63 1012.52 1012.42 1012.39 1012.45 1012.59 1012.79 1012.99 1013.15 1013.26 1013.32 1013.37 1013.45 1013.59 1013.81 1014.10 1014.44 1014.77 1015.05
1007.36 1008.04 1008.84 1009.62 1010.24 1010.60 1010.64 1010.39 1009.92 1009.34 1008.79 1008.35 1008.08 1007.99 1008.03 1008.13 1008.24 1008.32 1008.36 1008.42 1008.54 1008.78 1009.19 1009.75 1010.43 1011.15 1011.81 1012.34 1012.70 1012.88 1012.93 1012.89 1012.84 1012.83 1012.88 1012.99 1013.12 1013.25 1013.35 1013.41 1013.44 1013.48 1013.57 1013.72 1013.96 1014.26 1014.58 1014.88 1015.12
1007.84 1008.57 1009.38 1010.11 1010.65 1010.90 1010.81 1010.44 1009.85 1009.17 1008.53 1008.03 1007.73 1007.61 1007.66 1007.79 1007.94 1008.07 1008.18 1008.29 1008.45 1008.73 1009.14 1009.70 1010.37 1011.08 1011.76 1012.33 1012.76 1013.03 1013.17 1013.23 1013.25 1013.28 1013.34 1013.42 1013.52 1013.59 1013.64 1013.65 1013.65 1013.68 1013.76 1013.92 1014.15 1014.44 1014.74 1015.00 1015.19
1008.43 1009.17 1009.93 1010.59 1011.01 1011.14 1010.96 1010.49 1009.83 1009.10 1008.44 1007.92 1007.60 1007.49 1007.53 1007.67 1007.85 1008.00 1008.13 1008.26 1008.44 1008.71 1009.10 1009.63 1010.28 1010.97 1011.65 1012.25 1012.73 1013.08 1013.32 1013.47 1013.57 1013.66 1013.76 1013.85 1013.92 1013.97 1013.98 1013.97 1013.95 1013.96 1014.03 1014.17 1014.38 1014.63 1014.89 1015.10 1015.23
1009.05 1009.75 1010.42 1010.96 1011.28 1011.30 1011.03 1010.52 1009.85 1009.13 1008.48 1007.99 1007.69 1007.58 1007.63 1007.76 1007.93 1008.08 1008.21 1008.34 1008.50 1008.75 1009.11 1009.60 1010.19 1010.84 1011.50 1012.10 1012.61 1013.02 1013.33 1013.56 1013.75 1013.91 1014.05 1014.17 1014.26 1014.31 1014.31 1014.29 1014.26 1014.26 1014.31 1014.42 1014.59 1014.79 1014.98 1015.12 1015.19
1009.62 1010.23 1010.78 1011.19 1011.39 1011.33 1011.01 1010.50 1009.86 1009.20 1008.61 1008.17 1007.90 1007.80 1007.84 1007.95 1008.10 1008.23 1008.35 1008.46 1008.61 1008.84 1009.17 1009.61 1010.15 1010.75 1011.35 1011.92 1012.43 1012.85 1013.20 1013.49 1013.73 1013.95 1014.14 1014.31 1014.43 1014.51 1014.53 1014.52 1014.50 1014.50 1014.53 1014.61 1014.73 1014.86 1014.97 1015.04 1015.04
1010.07 1010.55 1010.96 1011.24 1011.33 1011.21 1010.89 1010.41 1009.85 1009.27 1008.76 1008.38 1008.14 1008.04 1008.05 1008.12 1008.23 1008.34 1008.44 1008.56 1008.71 1008.94 1009.26 1009.67 1010.16 1010.70 1011.24 1011.75 1012.21 1012.61 1012.95 1013.25 1013.52 1013.78 1014.01 1014.22 1014.38 1014.50 1014.57 1014.59 1014.60 1014.60 1014.63 1014.67 1014.74 1014.80 1014.84 1014.83 1014.77
1010.38 1010.71 1010.97 1011.12 1011.13 1010.98 1010.68 1010.27 1009.80 1009.32 1008.89 1008.55 1008.32 1008.19 1008.16 1008.18 1008.23 1008.31 1008.41 1008.55 1008.73 1008.99 1009.32 1009.73 1010.19 1010.68 1011.15 1011.59 1011.98 1012.33 1012.63 1012.90 1013.17 1013.43 1013.68 1013.92 1014.12 1014.28 1014.39 1014.46 1014.50 1014.53 1014.56 1014.59 1014.62 1014.63 1014.60 1014.53 1014.42
1010.54 1010.73 1010.86 1010.90 1010.85 1010.71 1010.46 1010.14 1009.77 1009.38 1009.02 1008.70 1008.44 1008.26 1008.14 1008.08 1008.08 1008.12 1008.22 1008.39 1008.62 1008.94 1009.32 1009.75 1010.21 1010.66 1011.09 1011.46 1011.78 1012.05 1012.29 1012.51 1012.74 1012.98 1013.23 1013.47 1013.70 1013.89 1014.04 1014.16 1014.24 1014.30 1014.35 1014.38 1014.39 1014.38 1014.31 1014.20 1014.05
1010.61 1010.67 1010.69 1010.66 1010.60 1010.48 1010.32 1010.10 1009.83 1009.52 1009.19 1008.87 1008.55 1008.27 1008.05 1007.88 1007.79 1007.79 1007.89 1008.09 1008.39 1008.77 1009.22 1009.70 1010.18 1010.63 1011.02 1011.34 1011.60 1011.81 1011.99 1012.17 1012.36 1012.56 1012.79 1013.01 1013.24 1013.44 1013.61 1013.76 1013.88 1013.98 1014.05 1014.11 1014.13 1014.11 1014.04 1013.91 1013.75
1010.63 1010.60 1010.55 1010.50 1010.46 1010.42 1010.35 1010.24 1010.08 1009.83 1009.52 1009.16 1008.76 1008.36 1007.99 1007.70 1007.50 1007.44 1007.51 1007.73 1008.08 1008.53 1009.04 1009.58 1010.09 1010.56 1010.94 1011.25 1011.48 1011.66 1011.81 1011.95 1012.10 1012.28 1012.47 1012.66 1012.86 1013.05 1013.22 1013.37 1013.51 1013.63 1013.75 1013.83 1013.89 1013.89 1013.84 1013.73 1013.57
1010.67 1010.59 1010.52 1010.49 1010.52 1010.57 1010.63 1010.64 1010.57 1010.39 1010.09 1009.67 1009.18 1008.64 1008.13 1007.68 1007.36 1007.20 1007.23 1007.43 1007.79 1008.27 1008.83 1009.41 1009.96 1010.44 1010.85 1011.17 1011.41 1011.60 1011.75 1011.90 1012.05 1012.20 1012.36 1012.53 1012.68 1012.82 1012.96 1013.09 1013.22 1013.35 1013.49 1013.61 1013.71 1013.76 1013.75 1013.67 1013.54
1010.78 1010.68 1010.64 1010.68 1010.80 1010.98 1011.16 1011.31 1011.34 1011.22 1010.93 1010.48 1009.89 1009.24 1008.58 1007.98 1007.53 1007.26 1007.19 1007.34 1007.66 1008.13 1008.68 1009.25 1009.81 1010.32 1010.75 1011.10 1011.39 1011.64 1011.84 1012.03 1012.21 1012.38 1012.53 1012.65 1012.75 1012.83 1012.90 1012.97 1013.07 1013.18 1013.32 1013.47 1013.61 1013.71 1013.75 1013.72 1013.63
1010.96 1010.89 1010.90 1011.02 1011.25 1011.56 1011.89 1012.16 1012.31 1012.26 1012.00 1011.54 1010.90 1010.16 1009.39 1008.67 1008.08 1007.69 1007.52 1007.56 1007.79 1008.18 1008.67 1009.20 1009.73 1010.22 1010.67 1011.07 1011.42 1011.74 1012.04 1012.31 1012.55 1012.76 1012.91 1013.01 1013.05 1013.05 1013.03 1013.02 1013.04 1013.11 1013.22 1013.38 1013.55 1013.69 1013.79 1013.82 1013.77
1011.20 1011.17 1011.24 1011.45 1011.79 1012.23 1012.68 1013.07 1013.33 1013.37 1013.18 1012.74 1012.11 1011.33 1010.50 1009.70 1009.02 1008.52 1008.22 1008.14 1008.24 1008.51 1008.88 1009.31 1009.76 1010.22 1010.66 1011.08 1011.49 1011.90 1012.29 1012.66 1012.99 1013.25 1013.42 1013.50 1013.49 1013.41 1013.29 1013.18 1013.10 1013.09 1013.16 1013.30 1013.48 1013.66 1013.81 1013.89 1013.88
1011.45 1011.46 1011.59 1011.87 1012.30 1012.83 1013.38 1013.88 1014.25 1014.39 1014.29 1013.93 1013.36 1012.62 1011.79 1010.98 1010.24 1009.66 1009.26 1009.04 1009.00 1009.11 1009.33 1009.63 1009.97 1010.34 1010.74 1011.16 1011.61 1012.08 1012.56 1013.02 1013.42 1013.74 1013.94 1014.01 1013.96 1013.80 1013.59 1013.37 1013.19 1013.09 1013.09 1013.19 1013.36 1013.55 1013.74 1013.86 1013.91
1011.67 1011.70 1011.86 1012.18 1012.65 1013.23 1013.85 1014.43 1014.89 1015.15 1015.16 1014.93 1014.46 1013.83 1013.08 1012.31 1011.59 1010.97 1010.50 1010.18 1010.01 1009.97 1010.03 1010.17 1010.37 1010.63 1010.95 1011.33 1011.78 1012.27 1012.80 1013.31 1013.78 1014.14 1014.36 1014.43 1014.35 1014.13 1013.83 1013.52 1013.24 1013.05 1012.97 1013.02 1013.16 1013.35 1013.55 1013.71 1013.80
1011.81 1011.84 1012.01 1012.32 1012.79 1013.37 1014.02 1014.64 1015.17 1015.53 1015.68 1015.60 1015.29 1014.81 1014.21 1013.54 1012.89 1012.30 1011.81 1011.43 1011.16 1010.99 1010.91 1010.91 1010.97 1011.11 1011.32 1011.63 1012.02 1012.49 1013.00 1013.53 1014.01 1014.39 1014.62 1014.69 1014.58 1014.33 1013.97 1013.58 1013.23 1012.95 1012.80 1012.79 1012.89 1013.06 1013.26 1013.44 1013.56
1011.86 1011.88 1012.00 1012.28 1012.70 1013.24 1013.87 1014.51 1015.09 1015.54 1015.82 1015.90 1015.78 1015.49 1015.06 1014.55 1014.02 1013.51 1013.05 1012.66 1012.34 1012.10 1011.92 1011.81 1011.75 1011.76 1011.86 1012.06 1012.35 1012.74 1013.19 1013.67 1014.11 1014.47 1014.70 1014.76 1014.64 1014.37 1013.99 1013.56 1013.15 1012.82 1012.61 1012.53 1012.58 1012.72 1012.91 1013.09 1013.23
1011.86 1011.83 1011.90 1012.10 1012.44 1012.92 1013.50 1014.13 1014.74 1015.27 1015.68 1015.92 1015.98 1015.88 1015.64 1015.31 1014.92 1014.52 1014.13 1013.78 1013.48 1013.21 1012.99 1012.80 1012.66 1012.58 1012.56 1012.63 1012.80 1013.06 1013.40 1013.77 1014.14 1014.44 1014.63 1014.67 1014.55 1014.28 1013.91 1013.47 1013.04 1012.68 1012.42 1012.29 1012.28 1012.38 1012.54 1012.71 1012.85
1011.86 1011.77 1011.77 1011.89 1012.15 1012.55 1013.08 1013.68 1014.32 1014.92 1015.43 1015.81 1016.04 1016.11 1016.05 1015.87 1015.62 1015.34 1015.04 1014.76 1014.50 1014.26 1014.05 1013.84 1013.66 1013.50 1013.39 1013.34 1013.37 1013.48 1013.66 1013.89 1014.13 1014.34 1014.47 1014.48 1014.37 1014.12 1013.77 1013.35 1012.93 1012.55 1012.26 1012.08 1012.02 1012.06 1012.18 1012.32 1012.45
1011.94 1011.80 1011.73 1011.78 1011.97 1012.31 1012.79 1013.39 1014.04 1014.70 1015.30 1015.79 1016.15 1016.36 1016.42 1016.37 1016.23 1016.04 1015.83 1015.61 1015.41 1015.23 1015.05 1014.87 1014.68 1014.49 1014.30 1014.15 1014.04 1013.98 1013.99 1014.06 1014.16 1014.25 1014.30 1014.28 1014.16 1013.94 1013.62 1013.23 1012.83 1012.45 1012.14 1011.92 1011.80 1011.78 1011.83 1011.93 1012.05
1012.16 1011.99 1011.88 1011.88 1012.03 1012.35 1012.82 1013.41 1014.10 1014.80 1015.47 1016.04 1016.49 1016.78 1016.92 1016.93 1016.85 1016.70 1016.54 1016.37 1016.22 1016.09 1015.96 1015.82 1015.65 1015.45 1015.22 1014.99 1014.76 1014.55 1014.40 1014.30 1014.24 1014.21 1014.18 1014.11 1013.98 1013.77 1013.48 1013.13 1012.75 1012.37 1012.03 1011.77 1011.59 1011.50 1011.49 1011.54 1011.63
1012.58 1012.40 1012.29 1012.29 1012.44 1012.76 1013.24 1013.86 1014.58 1015.33 1016.04 1016.66 1017.14 1017.46 1017.62 1017.63 1017.54 1017.39 1017.22 1017.07 1016.94 1016.84 1016.75 1016.64 1016.51 1016.32 1016.07 1015.78 1015.46 1015.14 1014.84 1014.58 1014.39 1014.24 1014.11 1013.99 1013.83 1013.63 1013.36 1013.03 1012.66 1012.28 1011.91 1011.59 1011.35 1011.19 1011.12 1011.12 1011.17
1013.23 1013.07 1012.98 1013.01 1013.20 1013.55 1014.08 1014.74 1015.49 1016.27 1017.01 1017.63 1018.11 1018.40 1018.52 1018.48 1018.32 1018.11 1017.89 1017.69 1017.55 1017.44 1017.37 1017.30 1017.19 1017.02 1016.77 1016.45 1016.07 1015.66 1015.25 1014.88 1014.56 1014.30 1014.10 1013.91 1013.73 1013.52 1013.25 1012.92 1012.55 1012.14 1011.73 1011.36 1011.04 1010.82 1010.68 1010.63 1010.66
1014.10 1013.98 1013.94 1014.03 1014.26 1014.67 1015.24 1015.93 1016.71 1017.50 1018.22 1018.82 1019.25 1019.48 1019.51 1019.38 1019.12 1018.81 1018.50 1018.23 1018.02 1017.89 1017.81 1017.74 1017.65 1017.50 1017.26 1016.93 1016.52 1016.05 1015.58 1015.12 1014.72 1014.38 1014.10 1013.87 1013.65 1013.41 1013.13 1012.79 1012.39 1011.94 1011.49 1011.05 1010.67 1010.37 1010.18 1010.09 1010.09
1015.12 1015.07 1015.09 1015.24 1015.53 1015.98 1016.58 1017.28 1018.05 1018.81 1019.49 1020.03 1020.38 1020.51 1020.44 1020.19 1019.82 1019.40 1018.98 1018.61 1018.33 1018.14 1018.03 1017.95 1017.86 1017.71 1017.49 1017.16 1016.75 1016.27 1015.77 1015.27 1014.82 1014.42 1014.09 1013.82 1013.56 1013.29 1012.99 1012.62 1012.18 1011.70 1011.19 1010.70 1010.25 1009.89 1009.65 1009.52 1009.51
1016.25 1016.26 1016.35 1016.55 1016.87 1017.34 1017.92 1018.60 1019.31 1020.00 1020.60 1021.04 1021.29 1021.31 1021.13 1020.78 1020.30 1019.77 1019.25 1018.79 1018.44 1018.18 1018.02 1017.91 1017.81 1017.67 1017.45 1017.15 1016.75 1016.28 1015.78 1015.28 1014.81 1014.40 1014.04 1013.74 1013.45 1013.16 1012.82 1012.43 1011.96 1011.44 1010.89 1010.34 1009.84 1009.43 1009.14 1008.99 1008.96
1017.39 1017.47 1017.61 1017.83 1018.16 1018.59 1019.11 1019.71 1020.32 1020.89 1021.37 1021.70 1021.83 1021.76 1021.49 1021.05 1020.49 1019.89 1019.29 1018.77 1018.35 1018.04 1017.82 1017.68 1017.55 1017.41 1017.20 1016.92 1016.55 1016.11 1015.64 1015.16 1014.70 1014.29 1013.93 1013.62 1013.32 1013.01 1012.66 1012.24 1011.76 1011.21 1010.63 1010.05 1009.51 1009.06 1008.73 1008.54 1008.49
Thickness
5831 5835 5837 5835 5830 5827 5813 5817 5824 5822 5823 5828 5828 5823 5817 5811 5803 5791 5810 5817 5813 5809 5802 5792 5786 5783 5781 5780 5778 5777 5776 5775 5774 5773 5772 5771 5771 5770 5769 5768 5768 5768 5768 5768 5769 5769 5768 5767 5766
5838 5838 5836 5836 5829 5810 5809 5822 5820 5821 5826 5830 5827 5822 5817 5812 5814 5811 5812 5813 5812 5808 5802 5794 5785 5782 5780 5778 5777 5775 5774 5773 5772 5772 5771 5770 5769 5768 5768 5767 5766 5766 5766 5766 5766 5767 5766 5765 5764
5839 5839 5835 5837 5823 5812 5810 5822 5824 5828 5832 5829 5823 5822 5816 5810 5813 5812 5815 5814 5812 5807 5802 5791 5785 5782 5779 5777 5776 5774 5773 5772 5771 5770 5770 5769 5768 5767 5766 5765 5764 5764 5764 5764 5764 5764 5764 5763 5762
5839 5838 5838 5830 5816 5821 5823 5827 5830 5827 5828 5830 5825 5816 5816 5818 5817 5818 5817 5815 5811 5807 5801 5791 5784 5781 5779 5776 5775 5773 5772 5771 5770 5769 5768 5767 5766 5765 5764 5763 5763 5763 5763 5763 5763 5762 5762 5761 5761
5839 5836 5828 5820 5819 5826 5832 5833 5833 5827 5825 5826 5824 5813 5809 5817 5822 5820 5816 5813 5810 5806 5801 5792 5783 5780 5778 5775 5774 5772 5771 5770 5769 5768 5767 5766 5765 5764 5763 5762 5761 5761 5761 5761 5761 5761 5760 5760 5760
5835 5834 5819 5811 5816 5826 5833 5836 5834 5829 5827 5826 5823 5815 5809 5818 5817 5816 5815 5812 5810 5805 5800 5791 5782 5780 5777 5775 5773 5771 5770 5769 5768 5767 5766 5765 5764 5762 5761 5760 5760 5760 5760 5760 5759 5759 5758 5758 5758
5828 5825 5816 5816 5815 5821 5828 5837 5832 5829 5825 5826 5828 5815 5811 5814 5816 5816 5814 5811 5808 5804 5800 5794 5789 5782 5777 5775 5772 5771 5769 5768 5767 5766 5765 5764 5763 5762 5760 5759 5758 5758 5758 5757 5757 5757 5757 5756 5756
5835 5827 5817 5817 5814 5817 5831 5836 5836 5832 5827 5834 5831 5816 5810 5813 5816 5814 5811 5809 5806 5802 5799 5795 5792 5788 5784 5779 5773 5770 5769 5767 5766 5765 5764 5763 5762 5761 5760 5759 5758 5757 5756 5756 5756 5756 5755 5754 5754
5833 5819 5811 5815 5816 5820 5832 5830 5835 5840 5832 5829 5830 5826 5824 5821 5816 5810 5806 5803 5801 5798 5797 5795 5792 5789 5786 5783 5776 5772 5769 5767 5766 5765 5764 5764 5766 5765 5762 5760 5758 5757 5756 5755 5755 5754 5754 5753 5753
5824 5812 5815 5824 5827 5826 5829 5830 5832 5830 5824 5822 5822 5823 5822 5818 5812 5806 5802 5798 5796 5794 5795 5794 5792 5789 5787 5783 5779 5776 5774 5771 5770 5769 5768 5767 5766 5765 5763 5759 5757 5756 5755 5755 5754 5754 5754 5754 5755
5822 5815 5822 5825 5830 5830 5828 5829 5834 5826 5818 5823 5820 5819 5817 5814 5811 5807 5804 5802 5799 5797 5794 5793 5790 5788 5786 5783 5781 5778 5776 5772 5771 5769 5768 5766 5765 5764 5763 5761 5758 5757 5756 5756 5755 5756 5757 5756 5755
5816 5818 5821 5824 5829 5827 5827 5828 5827 5826 5826 5834 5832 5827 5819 5813 5811 5809 5806 5803 5800 5796 5794 5792 5790 5786 5784 5782 5780 5777 5776 5774 5772 5768 5767 5767 5766 5764 5762 5761 5759 5758 5757 5756 5756 5755 5755 5754 5753
5811 5814 5820 5824 5826 5827 5826 5824 5823 5824 5832 5835 5830 5824 5818 5814 5812 5811 5809 5805 5800 5795 5793 5792 5788 5784 5781 5778 5777 5777 5775 5774 5771 5768 5766 5765 5766 5764 5762 5759 5757 5757 5756 5755 5754 5754 5753 5753 5752
5813 5814 5817 5821 5823 5824 5820 5821 5821 5822 5829 5826 5823 5819 5817 5814 5811 5808 5804 5800 5798 5794 5792 5791 5786 5783 5779 5777 5775 5775 5774 5771 5771 5768 5766 5764 5764 5762 5761 5759 5757 5756 5755 5754 5753 5752 5751 5751 5750
5811 5805 5809 5816 5819 5821 5819 5809 5814 5824 5825 5820 5818 5816 5814 5812 5809 5805 5803 5800 5797 5793 5791 5788 5786 5783 5779 5777 5775 5775 5773 5771 5770 5767 5764 5763 5762 5760 5759 5758 5757 5756 5754 5752 5751 5751 5750 5749 5749
5803 5798 5795 5807 5813 5815 5808 5798 5812 5823 5819 5814 5815 5813 5810 5808 5808 5805 5803 5800 5798 5794 5790 5787 5787 5782 5778 5775 5773 5773 5772 5770 5768 5766 5764 5761 5760 5759 5758 5758 5757 5754 5754 5752 5750 5749 5748 5747 5747
5791 5788 5791 5798 5809 5809 5805 5798 5809 5818 5815 5811 5811 5810 5808 5805 5805 5805 5803 5800 5797 5793 5788 5785 5783 5780 5777 5774 5771 5770 5768 5766 5766 5764 5762 5760 5758 5756 5756 5755 5753 5752 5751 5751 5750 5748 5746 5745 5744
5782 5787 5788 5790 5800 5801 5797 5798 5806 5811 5811 5809 5808 5807 5805 5803 5802 5803 5801 5799 5796 5792 5788 5784 5781 5778 5775 5773 5769 5768 5766 5765 5763 5762 5758 5756 5755 5754 5753 5752 5751 5751 5750 5748 5746 5743 5742 5742 5742
5788 5785 5784 5790 5799 5794 5791 5792 5799 5805 5805 5804 5804 5803 5802 5802 5804 5802 5799 5797 5793 5789 5785 5782 5779 5775 5772 5770 5768 5764 5763 5762 5761 5759 5756 5754 5752 5751 5750 5751 5749 5748 5748 5746 5745 5743 5740 5740 5741
5779 5777 5781 5787 5793 5789 5787 5787 5797 5800 5798 5800 5800 5799 5799 5799 5798 5796 5795 5793 5790 5786 5783 5779 5776 5774 5771 5769 5766 5764 5762 5761 5760 5757 5753 5751 5750 5749 5750 5748 5748 5746 5745 5743 5742 5740 5739 5740 5740
5773 5775 5779 5778 5783 5786 5781 5778 5787 5794 5798 5798 5799 5799 5799 5796 5794 5791 5790 5789 5787 5783 5780 5779 5775 5772 5769 5767 5765 5763 5759 5756 5755 5753 5751 5750 5748 5747 5746 5746 5745 5744 5744 5742 5740 5739 5736 5736 5737
5767 5782 5780 5776 5771 5774 5776 5768 5780 5786 5786 5789 5792 5794 5794 5794 5794 5791 5788 5786 5784 5782 5780 5776 5772 5769 5767 5765 5763 5760 5756 5753 5752 5751 5750 5748 5746 5744 5743 5742 5742 5742 5742 5739 5739 5739 5737 5735 5734
5773 5782 5777 5775 5771 5770 5774 5768 5778 5783 5776 5782 5786 5788 5790 5792 5792 5790 5788 5786 5784 5781 5778 5774 5770 5767 5764 5763 5760 5756 5754 5753 5752 5750 5747 5745 5744 5742 5740 5739 5739 5738 5738 5737 5736 5736 5735 5735 5733
5776 5772 5770 5771 5771 5753 5767 5764 5767 5777 5776 5779 5782 5783 5785 5787 5788 5787 5787 5785 5781 5778 5775 5772 5768 5764 5762 5760 5758 5754 5751 5749 5746 5744 5743 5742 5742 5740 5738 5737 5736 5736 5735 5734 5733 5733 5732 5732 5731
5766 5757 5747 5745 5748 5753 5769 5760 5763 5774 5778 5778 5777 5777 5780 5782 5783 5782 5780 5778 5775 5773 5771 5769 5765 5761 5760 5758 5756 5753 5750 5747 5744 5743 5741 5740 5739 5738 5735 5735 5733 5733 5733 5732 5731 5730 5730 5729 5727
5759 5759 5744 5735 5742 5756 5759 5754 5763 5773 5776 5776 5775 5775 5775 5776 5777 5776 5775 5774 5771 5769 5766 5765 5761 5758 5756 5754 5752 5750 5748 5747 5745 5741 5740 5738 5738 5736 5733 5732 5731 5730 5730 5730 5729 5729 5728 5727 5725
5754 5757 5766 5754 5751 5746 5753 5755 5758 5766 5765 5766 5767 5767 5767 5768 5769 5770 5770 5769 5767 5765 5762 5760 5757 5754 5753 5752 5749 5747 5744 5743 5742 5739 5737 5736 5734 5733 5730 5729 5728 5727 5727 5726 5726 5726 5724 5723 5722
5759 5757 5751 5745 5729 5729 5743 5746 5749 5750 5753 5756 5757 5758 5760 5761 5763 5764 5764 5763 5762 5761 5758 5756 5753 5751 5749 5747 5746 5743 5740 5738 5737 5736 5733 5731 5729 5728 5726 5725 5724 5723 5723 5723 5722 5722 5720 5719 5718
5743 5743 5743 5744 5741 5728 5727 5739 5755 5749 5750 5750 5751 5752 5753 5754 5755 5756 5757 5757 5756 5755 5754 5750 5748 5745 5742 5741 5739 5737 5735 5734 5732 5730 5728 5726 5724 5722 5721 5720 5720 5719 5719 5718 5717 5717 5715 5715 5714
5741 5739 5737 5725 5724 5728 5728 5731 5750 5747 5747 5747 5745 5745 5746 5747 5748 5750 5750 5750 5749 5747 5746 5744 5741 5739 5736 5734 5732 5729 5727 5726 5725 5723 5722 5720 5718 5717 5717 5716 5715 5715 5714 5713 5711 5710 5710 5710 5709